[[{"header":{"parameterUnit":"m.s-1","parameterCategory":1,"la1":30.2991,"la2":30.254,"lo1":-89.0895,"lo2":-89.0444,"dy":0.0017,"dx":0.0017,"nx":28,"ny":28,"refTime":"2025-07-20T21:00:00:Z","depth":0,"parameterNumber":2,"parameterNumberName":"U-component_of_WINDS"},"data":[0,0,0,0,0,0,0,0,0,0,0,0,0,0,0,0,0,0,0,0,0,0,0,0,0,0,0,0,0,0,0,0,0,0,0,0,0,0,0,0,0,0,0,0,0,0,0,0,0,0,0,0,0,0,0,0,0,0,0.1732,0.1734,0,0.1852,0.1853,0.1854,0.1916,0.1916,0.1916,0.1916,0.2041,0.2044,0.2047,0,0,0,0,0,0,0,0,0,0,0,0,0,0.1559,0.1562,0.1732,0.1734,0.1735,0.1851,0.1853,0.1855,0.1916,0.1916,0.1916,0.1916,0.204,0.2044,0.2047,0,0,0,0,0,0,0,0,0,0,0,0,0,0.1652,0.1563,0.1732,0.178,0.1785,0.1851,0.1853,0.1855,0.1916,0.1916,0.1916,0.1916,0.2038,0.2043,0.2048,0.2077,0,0,0.2063,0.2065,0,0,0,0,0,0,0,0,0.1647,0.1658,0.1771,0.1776,0.1783,0.1869,0.1838,0.1929,0.1916,0.1866,0.1916,0.1916,0.1984,0.1993,0.2015,0.2082,0.2088,0.2063,0.2066,0.2069,0.207,0,0,0,0,0,0,0,0.164,0.1654,0.178,0.1773,0.178,0.1796,0.1809,0.1855,0.1923,0.187,0.1875,0.1888,0.1987,0.201,0.2019,0.209,0.2063,0.2068,0.2071,0.2073,0.2186,0.2186,0,0,0,0,0,0,0.1626,0.1648,0.1776,0.1783,0.1713,0.1799,0.1813,0.1841,0.1923,0.1935,0.1888,0.1891,0.2002,0.2013,0.2023,0.2062,0.2068,0.2073,0.2076,0.2186,0.2186,0.2186,0,0,0,0,0,0,0.1622,0.1637,0.1771,0.1717,0.1735,0.1801,0.1832,0.1843,0.1867,0.1936,0.1949,0.19,0.2003,0.2016,0.2063,0.2067,0.2075,0.208,0.2185,0.2186,0.2186,0.2139,0,0,0,0,0,0,0.1617,0.1635,0.1646,0.1716,0.1738,0.1807,0.1832,0.1846,0.1875,0.188,0.195,0.1962,0.2004,0.2055,0.2067,0.2074,0.2084,0.2185,0.2185,0.2186,0.2141,0.2138,0.2135,0,0,0,0,0,0.161,0.1629,0.1646,0.1661,0.1753,0.1808,0.182,0.1867,0.1875,0.1887,0.1931,0.196,0.2064,0.2059,0.2074,0.2082,0.2185,0.2185,0.2186,0.2142,0.2138,0.2135,0,0,0,0,0,0,0.1558,0.1639,0.1659,0.1701,0.1747,0.1818,0.1835,0.1861,0.1906,0.1909,0.1966,0.1981,0.2022,0.2057,0.2049,0.2113,0.2128,0.2131,0.2089,0.2087,0.2084,0.2075,0.2088,0,0,0,0,0,0.1552,0.1588,0.1657,0.1688,0.1709,0.1768,0.1793,0.1825,0.1875,0.1895,0.1943,0.1991,0.2035,0.2063,0.2107,0.2146,0.2162,0.2158,0.2155,0.2153,0.2155,0.2178,0.2177,0.2186,0.2186,0.2186,0,0,0.1539,0.1587,0.1607,0.1678,0.1718,0.1755,0.1784,0.1822,0.1851,0.1902,0.1948,0.1984,0.2042,0.2084,0.2105,0.2114,0.2156,0.2153,0.215,0.2154,0.2178,0.2177,0.2176,0.2186,0.2186,0.2186,0,0,0.1534,0.1574,0.1604,0.1642,0.17,0.1739,0.1745,0.1812,0.1838,0.1885,0.1923,0.1958,0.2033,0.2072,0.2101,0.211,0.2138,0.2123,0.2109,0.213,0.2129,0.2129,0.2132,0.2132,0.2124,0.2124,0.2124,0,0.151,0.1568,0.1616,0.1652,0.1682,0.1728,0.1758,0.1794,0.1864,0.1884,0.1892,0.1986,0.2028,0.208,0.2081,0.2104,0.2114,0.2115,0.2125,0.2125,0.2126,0.2129,0.213,0.2122,0.2122,0.2123,0.2123,0,0.1536,0.1575,0.1592,0.1657,0.1689,0.1722,0.1776,0.1802,0.1831,0.1868,0.1915,0.1967,0.2022,0.2037,0.2066,0.2092,0.2096,0.2114,0.213,0.2122,0.2126,0.2128,0.2119,0.212,0.212,0.2121,0,0,0.1503,0.1593,0.1599,0.1629,0.1696,0.1727,0.1762,0.1815,0.1837,0.1883,0.1914,0.1975,0.1992,0.2025,0.2059,0.2078,0.208,0.2094,0.2096,0.2089,0.2113,0.2099,0.21,0.2099,0.2099,0.21,0.2108,0,0.1508,0.1572,0.1616,0.1663,0.17,0.1743,0.1774,0.1818,0.1854,0.1891,0.1931,0.1973,0.1992,0.2012,0.2032,0.2076,0.2086,0.2076,0.2129,0.213,0.2113,0.2102,0.2088,0.2093,0.211,0.211,0.2111,0,0.1523,0.1567,0.1617,0.1679,0.1696,0.1723,0.1774,0.1809,0.186,0.1885,0.1921,0.1955,0.1994,0.2005,0.206,0.2052,0.2076,0.21,0.2102,0.2109,0.212,0.2109,0.2096,0.2097,0.2114,0.2114,0.2113,0,0.1494,0.1565,0.1605,0.1629,0.1703,0.172,0.1752,0.1803,0.1832,0.1877,0.1896,0.1945,0.1972,0.2009,0.2056,0.206,0.2106,0.2121,0.2127,0.2126,0.2136,0.2135,0.2127,0.2151,0.215,0.215,0.215,0,0.1495,0.1524,0.1593,0.1617,0.1651,0.17,0.1733,0.1768,0.1813,0.1845,0.1886,0.1916,0.1975,0.2011,0.2048,0.2087,0.2099,0.2121,0.213,0.2117,0.2114,0.2134,0.2135,0.2151,0.2151,0.2151,0.2151,0,0.1469,0.1516,0.1561,0.1627,0.1644,0.1666,0.1722,0.1748,0.1785,0.1825,0.1837,0.1896,0.1941,0.199,0.2052,0.2077,0.2114,0.2128,0.2096,0.2102,0.2106,0.2104,0.2111,0.2114,0.2135,0.2134,0.2134,0,0.1467,0.149,0.1557,0.1581,0.1611,0.1649,0.1678,0.1728,0.1756,0.1816,0.1834,0.1882,0.1923,0.1993,0.2041,0.2089,0.2104,0.2103,0.2111,0.2097,0.2104,0.2102,0.2104,0.21,0.21,0.2099,0.2099,0,0.1458,0.1479,0.1519,0.1566,0.1599,0.1639,0.1681,0.1698,0.1756,0.1786,0.1832,0.1864,0.1926,0.1973,0.2026,0.206,0.2089,0.2095,0.21,0.2087,0.2068,0.2078,0.2089,0.2095,0.2096,0.2096,0.2096,0.2096,0.1444,0.1466,0.1517,0.1559,0.1595,0.1633,0.166,0.1699,0.1738,0.1792,0.1819,0.1865,0.1915,0.1989,0.2021,0.2058,0.2067,0.2073,0.2075,0.2076,0.2072,0.2061,0.2068,0.2068,0.2068,0.2069,0.2069,0,0.1437,0.1471,0.151,0.1566,0.1599,0.1623,0.167,0.1696,0.1735,0.1779,0.1818,0.1871,0.1916,0.1967,0.2016,0.2035,0.205,0.2047,0.2046,0.2053,0.2061,0.2053,0.2034,0.2034,0.2034,0.2034,0.2034,0.2034,0.1438,0.1476,0.1504,0.1561,0.1596,0.164,0.1664,0.1699,0.1734,0.1791,0.1828,0.1861,0.1908,0.196,0.2003,0.2017,0.2033,0.2025,0.2043,0.205,0.2053,0.2055,0.2048,0.2028,0.2028,0.2032,0.2032,0.2032]},{"header":{"parameterUnit":"m.s-1","parameterCategory":1,"la1":30.2991,"la2":30.254,"lo1":-89.0895,"lo2":-89.0444,"dy":0.0017,"dx":0.0017,"nx":28,"ny":28,"refTime":"2025-07-20T21:00:00:Z","depth":0,"parameterNumber":3,"parameterNumberName":"V-component_of_WINDS"},"data":[0,0,0,0,0,0,0,0,0,0,0,0,0,0,0,0,0,0,0,0,0,0,0,0,0,0,0,0,0,0,0,0,0,0,0,0,0,0,0,0,0,0,0,0,0,0,0,0,0,0,0,0,0,0,0,0,0,0,2.5073,2.5073,0,2.51,2.5101,2.5101,2.5152,2.5153,2.5154,2.5155,2.5179,2.5179,2.5179,0,0,0,0,0,0,0,0,0,0,0,0,0,2.506,2.506,2.5073,2.5073,2.5074,2.51,2.5101,2.5101,2.5152,2.5153,2.5154,2.5155,2.5179,2.5179,2.5179,0,0,0,0,0,0,0,0,0,0,0,0,0,2.5074,2.506,2.5073,2.5102,2.5105,2.51,2.5101,2.5101,2.5152,2.5153,2.5155,2.5156,2.518,2.5179,2.5179,2.5146,0,0,2.5177,2.5177,0,0,0,0,0,0,0,0,2.5074,2.5075,2.5098,2.51,2.5104,2.5124,2.5105,2.5116,2.5151,2.5134,2.5155,2.5157,2.516,2.5161,2.5163,2.5147,2.5148,2.5177,2.5177,2.5177,2.5177,0,0,0,0,0,0,0,2.5073,2.5074,2.5084,2.5098,2.5101,2.5113,2.5116,2.5108,2.5138,2.5136,2.5139,2.5142,2.5161,2.5163,2.5164,2.5149,2.5177,2.5177,2.5177,2.5177,2.5105,2.5104,0,0,0,0,0,0,2.5068,2.5073,2.5083,2.5085,2.5092,2.5112,2.5116,2.5116,2.5138,2.5143,2.5141,2.5144,2.5163,2.5164,2.5165,2.5126,2.5177,2.5177,2.5176,2.5107,2.5105,2.5103,0,0,0,0,0,0,2.5067,2.5068,2.5082,2.508,2.5082,2.511,2.511,2.5116,2.5117,2.5142,2.5147,2.5137,2.5164,2.5165,2.515,2.5127,2.5176,2.5176,2.5109,2.5106,2.5104,2.5049,0,0,0,0,0,0,2.5067,2.5068,2.5057,2.5079,2.5082,2.5068,2.5109,2.5115,2.5117,2.5122,2.514,2.5144,2.5165,2.515,2.515,2.5128,2.5176,2.5111,2.5108,2.5105,2.5053,2.5045,2.5038,0,0,0,0,0,2.5066,2.504,2.5056,2.5057,2.5069,2.5066,2.5068,2.5094,2.5115,2.5103,2.5119,2.5144,2.5131,2.5148,2.5148,2.5126,2.5112,2.5108,2.5105,2.5056,2.5046,2.5038,0,0,0,0,0,0,2.5013,2.5043,2.5061,2.5042,2.5051,2.5075,2.5061,2.5083,2.5086,2.509,2.5121,2.5125,2.5105,2.5114,2.5133,2.5094,2.5125,2.5121,2.5088,2.5079,2.5072,2.5069,2.5175,0,0,0,0,0,2.5,2.4996,2.5022,2.5002,2.5006,2.5033,2.5033,2.5052,2.5062,2.5066,2.5081,2.5088,2.5086,2.5084,2.5083,2.5055,2.5058,2.5039,2.5032,2.5026,2.5021,2.5005,2.4996,2.5091,2.5091,2.5091,0,0,2.4971,2.4987,2.4982,2.4992,2.5002,2.4995,2.5036,2.5028,2.5023,2.5064,2.505,2.5061,2.5072,2.505,2.5041,2.5057,2.4996,2.5021,2.5016,2.5015,2.5,2.4991,2.4983,2.5088,2.5089,2.5089,0,0,2.4914,2.4927,2.4911,2.492,2.4934,2.4952,2.4948,2.4968,2.4977,2.4964,2.4994,2.4988,2.4984,2.4989,2.4992,2.4936,2.4958,2.4935,2.4896,2.4879,2.4872,2.4865,2.4843,2.4835,2.4931,2.4931,2.4931,0,2.4876,2.487,2.49,2.489,2.4892,2.493,2.4913,2.4919,2.4932,2.4931,2.495,2.4944,2.4954,2.4933,2.4919,2.4921,2.4915,2.4932,2.4871,2.4864,2.4859,2.4837,2.4829,2.4928,2.4928,2.4929,2.4929,0,2.4821,2.4815,2.48,2.4812,2.4813,2.4799,2.4825,2.4822,2.4841,2.4856,2.4841,2.4855,2.4856,2.4853,2.4872,2.4833,2.4842,2.4865,2.4897,2.4846,2.4826,2.4819,2.4924,2.4925,2.4926,2.4926,0,0,2.4731,2.4759,2.4753,2.4758,2.4776,2.4771,2.4758,2.4761,2.4756,2.4764,2.4752,2.4747,2.4768,2.477,2.479,2.4776,2.4727,2.48,2.4801,2.4784,2.4683,2.4663,2.4654,2.4743,2.4742,2.4741,2.4681,0,2.4676,2.4657,2.4683,2.4657,2.4651,2.4687,2.4676,2.4684,2.4698,2.4693,2.4708,2.4703,2.4733,2.4734,2.4722,2.4736,2.4707,2.4741,2.473,2.4729,2.4723,2.4644,2.4624,2.4567,2.4674,2.4673,2.4672,0,2.461,2.4615,2.4588,2.4606,2.4604,2.4594,2.4597,2.4593,2.4603,2.4614,2.4616,2.4639,2.4626,2.4658,2.4639,2.4661,2.4658,2.4664,2.4662,2.466,2.4695,2.4637,2.455,2.454,2.4661,2.4661,2.4662,0,2.4544,2.4543,2.4527,2.453,2.4552,2.4543,2.4551,2.4562,2.4561,2.4564,2.4563,2.4564,2.4564,2.4563,2.4585,2.4607,2.4561,2.4596,2.4567,2.4566,2.4554,2.4554,2.4462,2.4556,2.4557,2.4557,2.4557,0,2.4479,2.4461,2.4497,2.4486,2.4466,2.4496,2.4475,2.4486,2.4496,2.4487,2.4519,2.4509,2.454,2.4533,2.455,2.4529,2.453,2.4536,2.454,2.4532,2.453,2.4528,2.4532,2.4555,2.4555,2.4555,2.4556,0,2.4401,2.4425,2.4409,2.443,2.4435,2.4419,2.4436,2.4426,2.4442,2.443,2.4429,2.4453,2.4446,2.4469,2.4466,2.4477,2.4446,2.4458,2.4443,2.4445,2.4414,2.4416,2.4316,2.4303,2.4408,2.4407,2.4406,0,2.4356,2.4343,2.4363,2.436,2.4366,2.4361,2.436,2.4389,2.4386,2.4396,2.4384,2.438,2.4378,2.4366,2.4382,2.4379,2.4389,2.4355,2.4389,2.438,2.4385,2.4385,2.4382,2.4347,2.4345,2.4344,2.4343,0,2.4274,2.4286,2.4285,2.4287,2.4285,2.4288,2.4293,2.4288,2.4318,2.4314,2.4308,2.4306,2.4303,2.4298,2.4298,2.4305,2.4328,2.4333,2.4325,2.4315,2.4305,2.4307,2.442,2.4334,2.4335,2.4336,2.4336,2.4337,2.421,2.4198,2.421,2.4207,2.4214,2.4217,2.4208,2.4223,2.4219,2.4219,2.4236,2.4226,2.4234,2.4237,2.4242,2.4233,2.4249,2.4239,2.4236,2.4232,2.4225,2.4309,2.4233,2.4234,2.4234,2.4234,2.4234,0,2.4126,2.4136,2.4133,2.4138,2.4135,2.4159,2.4165,2.416,2.4151,2.4158,2.4155,2.4147,2.4142,2.4158,2.4154,2.4144,2.4154,2.4142,2.4141,2.4142,2.4213,2.4218,2.4133,2.4133,2.4133,2.4133,2.4133,2.4133,2.4083,2.4064,2.4078,2.4062,2.4072,2.4063,2.4064,2.4066,2.4071,2.4061,2.4057,2.4068,2.4077,2.4075,2.407,2.4075,2.4071,2.4054,2.4062,2.4127,2.4137,2.4146,2.4151,2.4054,2.4054,2.3991,2.399,2.399]}]]